[[{"header":{"parameterUnit":"m.s-1","parameterCategory":1,"la1":30.2992,"la2":30.254,"lo1":-89.0895,"lo2":-89.0443,"dy":0.0025,"dx":0.0025,"nx":19,"ny":19,"refTime":"2026-04-10T03:00:00:Z","depth":0,"parameterNumber":2,"parameterNumberName":"U-component_of_WINDS"},"data":[0,0,0,-6.5895,-6.5898,-6.6022,-6.6023,-6.6213,-6.6215,0,0,0,0,0,0,0,0,0,0,0,-6.5877,-6.5879,-6.5895,-6.5898,-6.6022,-6.6023,-6.6212,-6.6215,0,0,0,0,0,0,0,0,0,0,0,-6.5876,-6.5878,-6.5881,-6.5899,-6.6022,-6.6023,-6.6212,-6.6107,0,0,0,0,0,0,0,0,0,0,-6.5981,-6.5983,-6.5878,-6.5881,-6.59,-6.6022,-6.6023,-6.6102,-6.6114,-6.617,0,-6.6225,0,-6.6223,-6.6229,-6.623,0,0,0,-6.5884,-6.5973,-6.599,-6.5881,-6.5901,-6.6022,-6.5962,-6.6108,-6.6122,-6.6186,-6.6227,-6.6234,-6.6226,-6.6231,-6.6232,-6.6606,-6.6608,0,0,-6.5877,-6.5909,-6.598,-6.5999,-6.5982,-6.5959,-6.5966,-6.6116,-6.6163,-6.6228,-6.6237,-6.623,-6.6232,-6.6234,-6.6603,-6.6606,0,0,0,-6.5867,-6.5905,-6.5917,-6.5992,-6.6013,-6.5962,-6.5972,-6.6156,-6.6157,-6.6239,-6.6232,-6.6234,-6.6236,-6.6601,-6.6605,-6.6756,0,0,0,-6.5862,-6.5899,-6.5915,-6.5936,-6.601,-6.6086,-6.6009,-6.6147,-6.6163,-6.6231,-6.6234,-6.6238,-6.6598,-6.6603,-6.6746,-6.6822,0,0,0,-6.5862,-6.5899,-6.5923,-6.5937,-6.5992,-6.6082,-6.6092,-6.6149,-6.6159,-6.623,-6.6239,-6.6596,-6.6602,-6.6737,-6.6807,-6.6931,0,0,0,-6.5871,-6.6055,-6.5926,-6.6128,-6.5991,-6.6175,-6.6091,-6.6226,-6.6305,-6.6235,-6.6598,-6.6604,-6.6734,-6.6798,-6.6922,-6.7041,-6.7094,0,0,-6.612,-6.6086,-6.6202,-6.6091,-6.6306,-6.6154,-6.6391,-6.6433,-6.641,-6.6542,-6.655,-6.6749,-6.6806,-6.6929,-6.7377,-6.7419,0,0,0,-6.6292,-6.6376,-6.6426,-6.6503,-6.6541,-6.6579,-6.6581,-6.6597,-6.6708,-6.6484,-6.6826,-6.6859,-6.6929,-6.6985,-6.7021,-6.708,-6.6631,-6.663,-6.663,-6.6689,-6.6651,-6.6842,-6.682,-6.6897,-6.6899,-6.6958,-6.6979,-6.6917,-6.6999,-6.7038,-6.7314,-6.7381,-6.7407,-6.747,-6.7097,-6.7098,-6.7098,-6.7099,-6.7051,-6.7165,-6.7081,-6.7235,-6.7195,-6.7324,-6.7334,-6.7287,-6.7402,-6.7281,-6.7341,-6.7213,-6.7455,-6.7507,-6.711,-6.7108,-6.7106,-6.7105,-6.7105,-6.7308,-6.7356,-6.7373,-6.7483,-6.7573,-6.7544,-6.7659,-6.7618,-6.7579,-6.7639,-6.7677,-6.7674,-6.7667,-6.766,-6.7661,-6.7662,-6.7663,-6.7663,-6.7664,-6.7567,-6.7582,-6.7684,-6.7742,-6.7787,-6.7842,-6.7848,-6.7892,-6.793,-6.7891,-6.7891,-6.7822,-6.7485,-6.7402,-6.7679,-6.7676,-6.7674,-6.7673,-6.7672,-6.7949,-6.7857,-6.8015,-6.8062,-6.8127,-6.822,-6.8165,-6.8259,-6.8289,-6.8348,-6.8268,-6.8025,-6.7986,-6.7957,-6.7888,-6.8274,-6.8274,-6.8274,-6.8274,-6.8166,-6.8143,-6.8297,-6.8374,-6.8445,-6.8413,-6.8595,-6.8603,-6.8595,-6.8612,-6.855,-6.8455,-6.8427,-6.8405,-6.8366,-6.8301,-6.8784,-6.8784,-6.8785,-6.84,-6.8382,-6.8545,-6.8537,-6.8586,-6.8629,-6.8799,-6.8892,-6.8864,-6.8805,-6.8625,-6.8604,-6.8449,-6.84,-6.8337,-6.8278,-6.8157,0,0]},{"header":{"parameterUnit":"m.s-1","parameterCategory":1,"la1":30.2992,"la2":30.254,"lo1":-89.0895,"lo2":-89.0443,"dy":0.0025,"dx":0.0025,"nx":19,"ny":19,"refTime":"2026-04-10T03:00:00:Z","depth":0,"parameterNumber":3,"parameterNumberName":"V-component_of_WINDS"},"data":[0,0,0,0.5802,0.5803,0.5858,0.5858,0.5917,0.5918,0,0,0,0,0,0,0,0,0,0,0,0.5779,0.5779,0.5802,0.5803,0.5858,0.5858,0.5917,0.5918,0,0,0,0,0,0,0,0,0,0,0,0.5779,0.5779,0.578,0.5803,0.5857,0.5858,0.5917,0.588,0,0,0,0,0,0,0,0,0,0,0.5828,0.5801,0.5779,0.578,0.5803,0.5857,0.5858,0.5878,0.5882,0.5888,0,0.5892,0,0.5906,0.5921,0.5921,0,0,0,0.5808,0.5798,0.5818,0.578,0.5804,0.5857,0.5834,0.588,0.5885,0.5893,0.5893,0.5895,0.5907,0.5922,0.5922,0.5942,0.5942,0,0,0.5805,0.5785,0.5815,0.5821,0.5812,0.5832,0.5836,0.5883,0.5881,0.5893,0.5897,0.5908,0.5922,0.5922,0.5943,0.5942,0,0,0,0.5793,0.5783,0.5803,0.5818,0.5829,0.5834,0.5838,0.5879,0.5887,0.5898,0.5909,0.5922,0.5923,0.5943,0.5943,0.5918,0,0,0,0.5791,0.5776,0.5801,0.579,0.5828,0.5855,0.5833,0.5884,0.589,0.5908,0.5922,0.5923,0.5943,0.5943,0.5919,0.591,0,0,0,0.5778,0.5775,0.5781,0.5789,0.5812,0.5854,0.5865,0.5886,0.5896,0.5921,0.5923,0.5943,0.5943,0.592,0.5911,0.591,0,0,0,0.5758,0.5757,0.578,0.5784,0.5811,0.5839,0.5865,0.5887,0.5905,0.5922,0.5943,0.5943,0.592,0.5912,0.5911,0.5905,0.5901,0,0,0.5746,0.5755,0.5759,0.5781,0.58,0.5832,0.5848,0.5882,0.5902,0.5928,0.5929,0.5919,0.5911,0.591,0.5886,0.5882,0,0,0,0.5749,0.5751,0.5761,0.5778,0.5805,0.5827,0.5862,0.5875,0.5899,0.5911,0.5919,0.5915,0.5915,0.5913,0.591,0.5912,0.5941,0.5941,0.5941,0.5705,0.5731,0.5739,0.5772,0.5788,0.5825,0.5841,0.5865,0.5885,0.5887,0.5894,0.5876,0.5874,0.5872,0.5873,0.5894,0.5894,0.5894,0.5894,0.569,0.5698,0.5727,0.5746,0.5774,0.5789,0.5825,0.5839,0.5858,0.5872,0.5874,0.5887,0.5867,0.587,0.5892,0.5892,0.5893,0.5893,0.5893,0.5664,0.5673,0.5689,0.5718,0.5737,0.577,0.5788,0.5812,0.5835,0.5837,0.5848,0.5849,0.5852,0.5841,0.584,0.584,0.584,0.584,0.584,0.5631,0.565,0.5662,0.5692,0.5707,0.573,0.5767,0.5783,0.5806,0.5823,0.5823,0.5844,0.5861,0.5864,0.5839,0.584,0.584,0.584,0.584,0.5607,0.5616,0.5634,0.5649,0.5687,0.5705,0.5736,0.5766,0.5782,0.579,0.5811,0.582,0.583,0.5833,0.5836,0.5805,0.5805,0.5805,0.5805,0.5585,0.5593,0.5617,0.564,0.5665,0.5696,0.5716,0.5746,0.5778,0.579,0.5798,0.5804,0.5806,0.5816,0.5818,0.5822,0.5788,0.5788,0.5788,0.5572,0.5584,0.5596,0.5628,0.566,0.5686,0.5706,0.5731,0.577,0.5788,0.58,0.58,0.5811,0.5813,0.5831,0.5835,0.5842,0,0]}]]